[[{"header":{"parameterUnit":"m.s-1","parameterCategory":1,"la1":30.2992,"la2":30.254,"lo1":-89.0895,"lo2":-89.0443,"dy":0.0025,"dx":0.0025,"nx":19,"ny":19,"refTime":"2026-04-26T03:00:00:Z","depth":0,"parameterNumber":2,"parameterNumberName":"U-component_of_WINDS"},"data":[0,0,0,-2.8945,-2.8946,-2.9002,-2.9002,-2.9078,-2.9078,0,0,0,0,0,0,0,0,0,0,0,-2.8931,-2.8932,-2.8945,-2.8947,-2.9002,-2.9002,-2.9078,-2.9078,0,0,0,0,0,0,0,0,0,0,0,-2.8931,-2.8932,-2.8933,-2.8947,-2.9002,-2.9002,-2.9077,-2.9034,0,0,0,0,0,0,0,0,0,0,-2.8979,-2.8969,-2.8932,-2.8933,-2.8947,-2.9002,-2.9002,-2.9032,-2.9037,-2.9055,0,-2.9071,0,-2.9076,-2.9084,-2.9084,0,0,0,-2.8944,-2.8965,-2.8978,-2.8933,-2.8948,-2.9002,-2.8976,-2.9034,-2.904,-2.9061,-2.9072,-2.9075,-2.9077,-2.9084,-2.9085,-2.9196,-2.9197,0,0,-2.8941,-2.8942,-2.8974,-2.8981,-2.8973,-2.8975,-2.8978,-2.9038,-2.905,-2.9072,-2.9076,-2.9079,-2.9085,-2.9085,-2.9196,-2.9196,0,0,0,-2.8934,-2.894,-2.8952,-2.8978,-2.8988,-2.8976,-2.898,-2.9047,-2.9051,-2.9077,-2.908,-2.9085,-2.9086,-2.9195,-2.9196,-2.9227,0,0,0,-2.8932,-2.8936,-2.895,-2.8952,-2.8987,-2.9018,-2.8988,-2.9046,-2.9053,-2.9079,-2.9085,-2.9087,-2.9194,-2.9196,-2.9225,-2.9241,0,0,0,-2.8927,-2.8935,-2.8944,-2.8952,-2.8976,-2.9017,-2.9024,-2.9048,-2.9055,-2.9084,-2.9087,-2.9194,-2.9195,-2.9223,-2.9237,-2.927,0,0,0,-2.8921,-2.897,-2.8945,-2.9001,-2.8975,-2.9037,-2.9024,-2.9069,-2.9098,-2.9086,-2.9194,-2.9196,-2.9222,-2.9235,-2.9268,-2.9297,-2.931,0,0,-2.8984,-2.8978,-2.9011,-2.899,-2.9056,-2.9028,-2.9099,-2.9124,-2.9126,-2.9173,-2.9176,-2.9226,-2.9237,-2.927,-2.9382,-2.9392,0,0,0,-2.9031,-2.9055,-2.9073,-2.9101,-2.9123,-2.9142,-2.9157,-2.9167,-2.9207,-2.9151,-2.9247,-2.9254,-2.9273,-2.9287,-2.9295,-2.9311,-2.9203,-2.9203,-2.9202,-2.9119,-2.9121,-2.9176,-2.9184,-2.9212,-2.9229,-2.9251,-2.9267,-2.9259,-2.9282,-2.9295,-2.9364,-2.938,-2.9386,-2.9403,-2.9312,-2.9312,-2.9312,-2.9312,-2.921,-2.9244,-2.9235,-2.9285,-2.9286,-2.9328,-2.9347,-2.9341,-2.938,-2.9353,-2.937,-2.9339,-2.9397,-2.9412,-2.9315,-2.9314,-2.9314,-2.9314,-2.9314,-2.9267,-2.9283,-2.9296,-2.9338,-2.9371,-2.9379,-2.9418,-2.9418,-2.9418,-2.9435,-2.9449,-2.9449,-2.9447,-2.9442,-2.9443,-2.9443,-2.9443,-2.9443,-2.9443,-2.9319,-2.9333,-2.9365,-2.9395,-2.9414,-2.944,-2.9459,-2.9478,-2.9499,-2.9496,-2.9496,-2.9486,-2.9403,-2.9381,-2.9447,-2.9446,-2.9446,-2.9446,-2.9445,-2.9407,-2.9388,-2.9439,-2.9459,-2.9494,-2.9528,-2.9529,-2.9568,-2.9584,-2.9604,-2.9592,-2.9531,-2.9524,-2.9518,-2.9499,-2.9592,-2.9592,-2.9592,-2.9592,-2.9454,-2.9452,-2.9504,-2.9536,-2.9567,-2.9574,-2.9633,-2.965,-2.9663,-2.9674,-2.9661,-2.9638,-2.9631,-2.9629,-2.962,-2.9602,-2.9719,-2.9719,-2.9719,-2.9508,-2.9509,-2.9558,-2.9572,-2.9601,-2.9626,-2.9681,-2.9718,-2.9731,-2.9724,-2.9682,-2.9676,-2.9639,-2.9627,-2.9616,-2.9602,-2.9571,0,0]},{"header":{"parameterUnit":"m.s-1","parameterCategory":1,"la1":30.2992,"la2":30.254,"lo1":-89.0895,"lo2":-89.0443,"dy":0.0025,"dx":0.0025,"nx":19,"ny":19,"refTime":"2026-04-26T03:00:00:Z","depth":0,"parameterNumber":3,"parameterNumberName":"V-component_of_WINDS"},"data":[0,0,0,2.8648,2.8648,2.8633,2.8633,2.86,2.86,0,0,0,0,0,0,0,0,0,0,0,2.8646,2.8645,2.8648,2.8648,2.8633,2.8633,2.86,2.86,0,0,0,0,0,0,0,0,0,0,0,2.8646,2.8645,2.8645,2.8647,2.8633,2.8633,2.86,2.8616,0,0,0,0,0,0,0,0,0,0,2.8632,2.8624,2.8645,2.8645,2.8647,2.8633,2.8633,2.8617,2.8615,2.8601,0,2.8589,0,2.8594,2.8597,2.8597,0,0,0,2.8652,2.8625,2.8628,2.8645,2.8647,2.8633,2.8641,2.8616,2.8614,2.8599,2.8589,2.8588,2.8594,2.8596,2.8596,2.8511,2.851,0,0,2.8653,2.8639,2.863,2.8626,2.863,2.8641,2.864,2.8615,2.8602,2.8589,2.8587,2.8593,2.8596,2.8596,2.8512,2.8511,0,0,0,2.8652,2.8639,2.8643,2.8627,2.8626,2.8641,2.864,2.8603,2.8606,2.8587,2.8593,2.8596,2.8595,2.8512,2.8511,2.847,0,0,0,2.8653,2.8639,2.8643,2.8634,2.8626,2.8615,2.8628,2.8608,2.8605,2.8593,2.8596,2.8595,2.8513,2.8512,2.8473,2.8452,0,0,0,2.8649,2.8638,2.8634,2.8633,2.8627,2.8616,2.8617,2.8607,2.8608,2.8597,2.8595,2.8513,2.8512,2.8475,2.8456,2.8427,0,0,0,2.864,2.8595,2.8633,2.8586,2.8627,2.8591,2.8617,2.859,2.8575,2.8596,2.8513,2.8511,2.8476,2.8459,2.843,2.8401,2.8388,0,0,2.8576,2.8587,2.8561,2.8594,2.8549,2.8594,2.8542,2.854,2.8549,2.8523,2.8521,2.8472,2.8457,2.8428,2.8317,2.8307,0,0,0,2.8536,2.8516,2.8507,2.8494,2.8494,2.8492,2.85,2.8499,2.8478,2.8534,2.8454,2.8445,2.8429,2.8416,2.8407,2.8394,2.8505,2.8505,2.8505,2.8424,2.8443,2.84,2.8417,2.8404,2.8415,2.8405,2.8406,2.8425,2.8406,2.8398,2.833,2.8314,2.8307,2.8294,2.8384,2.8384,2.8384,2.8384,2.8333,2.8309,2.834,2.831,2.8329,2.8303,2.8311,2.8327,2.8305,2.8336,2.8323,2.8356,2.8295,2.8284,2.8381,2.8382,2.8382,2.8382,2.8382,2.8262,2.8254,2.8257,2.8242,2.8228,2.8246,2.8225,2.8242,2.8257,2.8244,2.8238,2.8239,2.8243,2.824,2.824,2.824,2.824,2.824,2.8239,2.8188,2.8193,2.8174,2.8172,2.8167,2.8163,2.8174,2.8169,2.8168,2.8182,2.8182,2.8204,2.8286,2.8306,2.8236,2.8236,2.8237,2.8237,2.8237,2.8089,2.8115,2.8086,2.8082,2.8082,2.8068,2.8091,2.808,2.8078,2.8067,2.8093,2.8151,2.8162,2.817,2.8187,2.8089,2.8089,2.8089,2.8089,2.803,2.8039,2.8015,2.8007,2.8001,2.802,2.7986,2.7995,2.8008,2.8008,2.8025,2.8049,2.8055,2.8063,2.8073,2.8089,2.7969,2.7969,2.7969,2.7971,2.7981,2.7949,2.7965,2.7967,2.7967,2.7937,2.7925,2.7945,2.7964,2.8009,2.8014,2.8053,2.8064,2.8084,2.8098,2.8128,0,0]}]]